Home > Weather > Abidjan > Past weeks

Flag for Cote d'Ivoire (Ivory Coast) Weather for the Past 2 Weeks in Abidjan, Cote d'Ivoire (Ivory Coast)

Now
82 °F

Passing clouds.


Feels Like: 92 °F
Forecast: 81 / 90 °F
Wind: 3 mph from Southwest

Location: Abidjan Airport

Current Time: Feb 14, 2016 at 8:44:03 AM

Latest Report: Feb 14, 2016 at 8:00 AM


Visibility: 4 mi

Pressure: 29.92 "Hg

Humidity: 89%

Dew point: 79 °F

Location of AbidjanLocation

Historic Weather in Abidjan — Graph

°F

Abidjan Temperature Yesterday

Maximum temperature yesterday: 90 °F (at 11:30 AM)
Minimum temperature yesterday: 79 °F (at 6:30 AM)
Average temperature yesterday: 84 °F

High & Low Weather Summary for the Past Weeks

 TemperatureHumidityPressure
High93 °F (Feb 10, 12:30 PM)100% (Jan 31, 8:30 AM)29.98 "Hg (Jan 31, 8:30 AM)
Low48 °F (Feb 4, 4:30 PM)19% (Jan 30, 12:00 PM)29.77 "Hg (Feb 1, 3:30 PM)
Average83 °F82%29.88 "Hg
* Reported Jan 30 7:00 AM — Feb 14 7:30 AM, Abidjan, Weather by CustomWeather, © 2016

Note: Actual official high and low records may vary slightly from our data, if they occured in-between our weather recording intervals... More about our weather records

Advertising

Abidjan Weather History for the Previous 24 Hours

 ConditionsComfort  
Time TempWeatherWind HumidityBarometerVisibility
7:30 AM
Sun, Feb 14
81 °FPassing clouds.5 mph94%29.89 "Hg4 mi
7:00 AM81 °FPassing clouds.6 mph94%29.89 "Hg4 mi
6:30 AM81 °FPassing clouds.6 mph94%29.86 "Hg5 mi
6:00 AM81 °FPassing clouds.5 mph94%29.86 "Hg5 mi
5:30 AM81 °FPassing clouds.5 mph94%29.86 "Hg5 mi
5:00 AM81 °FPassing clouds.5 mph100%29.86 "Hg5 mi
4:30 AM81 °FPassing clouds.5 mph100%29.86 "Hg5 mi
4:00 AM81 °FPassing clouds.5 mph100%29.86 "Hg5 mi
3:30 AM81 °FPassing clouds.6 mph100%29.86 "Hg5 mi
3:00 AM81 °FPassing clouds.6 mph100%29.86 "Hg5 mi
2:30 AM82 °FPassing clouds.6 mph94%29.86 "Hg5 mi
2:00 AM82 °FPassing clouds.7 mph89%29.89 "Hg5 mi
1:30 AM82 °FPassing clouds.6 mph89%29.89 "Hg5 mi
1:00 AM82 °FPassing clouds.6 mph89%29.92 "Hg5 mi
12:30 AM82 °FPassing clouds.7 mph94%29.92 "Hg5 mi
12:00 AM82 °FPassing clouds.7 mph94%29.92 "HgN/A
11:30 PM
Sat, Feb 13
82 °FPassing clouds.7 mph89%29.92 "HgN/A
11:00 PM82 °FPassing clouds.6 mph89%29.95 "HgN/A
10:30 PM82 °FPassing clouds.6 mph89%29.92 "HgN/A
10:00 PM82 °FPassing clouds.7 mph89%29.92 "HgN/A
9:00 PM82 °FPassing clouds.6 mph94%29.92 "Hg5 mi
8:30 PM84 °FPassing clouds.7 mph89%29.89 "Hg5 mi
8:00 PM84 °FPassing clouds.7 mph89%29.89 "Hg4 mi
7:30 PM82 °FPassing clouds.7 mph94%29.86 "Hg4 mi
7:00 PM84 °FPassing clouds.9 mph89%29.86 "Hg4 mi
6:30 PM84 °FPassing clouds.10 mph84%29.83 "Hg4 mi
6:00 PM86 °FPassing clouds.12 mph79%29.83 "Hg4 mi
5:30 PM86 °FPassing clouds.12 mph79%29.80 "Hg4 mi
5:00 PM86 °FPassing clouds.12 mph79%29.80 "Hg4 mi
4:30 PM88 °FPassing clouds.14 mph75%29.80 "Hg5 mi
4:00 PM90 °FPassing clouds.12 mph71%29.80 "Hg5 mi
3:30 PM88 °FPassing clouds.13 mph75%29.80 "Hg5 mi
3:00 PM90 °FPassing clouds.14 mph67%29.80 "Hg5 mi
2:30 PM90 °FPassing clouds.15 mph67%29.83 "Hg5 mi
2:00 PM90 °FPassing clouds.13 mph67%29.83 "Hg5 mi
1:30 PM90 °FPassing clouds.13 mph63%29.86 "Hg5 mi
1:00 PM90 °FScattered clouds.13 mph63%29.86 "Hg5 mi
12:30 PM90 °FScattered clouds.12 mph63%29.89 "Hg5 mi
12:00 PM90 °FScattered clouds.10 mph67%29.89 "Hg4 mi
11:30 AM90 °FScattered clouds.10 mph67%29.89 "Hg4 mi
11:00 AM88 °FScattered clouds.10 mph66%29.92 "Hg4 mi
10:30 AM88 °FScattered clouds.7 mph75%29.92 "Hg4 mi
10:00 AM88 °FScattered clouds.7 mph75%29.92 "Hg4 mi
9:30 AM84 °FPassing clouds.8 mph84%29.92 "Hg4 mi
9:00 AM84 °FPassing clouds.8 mph84%29.92 "Hg4 mi
8:30 AM82 °FPassing clouds.5 mph94%29.89 "Hg4 mi
8:00 AM82 °FPassing clouds.5 mph94%29.89 "Hg4 mi
Weather by CustomWeather, © 2016

See weather overviewHow to use our weather pages